Cloud_Cover
32 32 24 24 64 80 88 88 88 88 88 68 68 44 24 48 48 68 80 80 68 80 76 32 48 44 24 20 0 0 0 0 0 0 20 88 76 76 76 92 76 68 68 56 88 88 64 8 48 80 80 36 80 56 20 20 76 92 92 92 92 92 92 92 92 92 92 80 88
24 24 32 56 80 88 88 88 88 88 80 88 88 76 48 44 68 80 88 76 80 88 88 80 88 76 56 36 8 0 0 0 0 0 20 92 92 92 92 92 88 80 76 68 88 92 92 80 88 76 48 12 32 64 68 24 76 92 92 92 92 92 92 92 92 80 68 68 80
32 36 56 80 88 88 92 88 88 80 76 76 88 88 88 88 64 76 88 88 92 76 68 92 92 68 36 32 32 12 0 0 0 0 20 92 92 92 92 92 92 88 76 76 68 76 80 92 92 92 88 88 88 92 88 64 36 64 92 92 92 92 92 92 92 80 76 80 80
64 76 88 88 88 88 88 88 88 88 88 88 88 88 88 88 88 92 88 64 64 76 88 92 56 36 32 20 12 24 32 8 0 0 12 56 88 92 92 92 92 88 80 64 44 44 56 68 88 92 92 92 92 92 92 92 76 76 68 48 88 92 92 92 88 88 92 92 92
88 88 88 88 88 88 88 88 88 88 88 88 88 92 92 92 92 92 80 48 80 92 92 92 88 88 88 88 88 64 32 32 24 12 12 48 80 92 92 92 92 80 68 48 44 36 44 56 88 92 92 92 92 92 92 92 92 92 88 88 68 76 92 92 88 92 92 92 92
76 80 92 92 92 88 88 88 88 88 88 88 88 88 88 92 92 92 88 68 88 68 64 92 88 48 20 36 80 92 88 64 44 36 56 88 92 92 92 92 92 92 88 64 48 56 68 68 80 88 92 92 92 92 92 92 92 92 92 92 88 64 48 88 92 92 92 92 92
92 92 92 92 92 92 92 92 92 92 88 92 88 88 88 88 88 88 88 88 76 44 20 24 36 36 24 0 24 64 92 92 92 92 92 92 92 92 92 92 92 92 92 80 76 76 80 88 88 92 92 92 92 92 92 92 92 92 92 88 88 76 64 76 76 80 92 92 92
88 92 88 92 92 92 92 92 92 92 92 92 92 88 88 88 88 76 68 88 88 88 80 48 32 32 32 24 8 12 24 44 48 76 92 92 92 92 92 92 92 88 88 92 88 92 92 92 92 92 92 92 92 92 92 92 92 92 92 92 92 88 76 64 68 80 92 88 92
88 76 68 88 92 92 92 92 92 92 92 92 92 88 80 88 88 88 88 88 64 64 64 44 24 20 12 12 0 0 8 20 32 48 68 88 92 92 92 92 80 76 80 92 92 92 92 92 92 92 92 92 92 92 92 92 92 92 92 92 92 88 88 92 80 88 76 24 80
88 88 80 80 88 92 92 92 92 92 92 92 88 88 88 88 88 92 88 68 88 80 56 36 24 12 8 8 0 0 0 8 20 32 56 88 88 88 88 76 76 76 80 92 92 92 92 92 92 92 92 92 92 92 92 92 92 92 92 92 92 92 92 88 88 88 76 44 76
80 80 88 88 88 88 80 88 88 88 88 88 92 92 88 76 88 92 92 92 92 76 48 24 48 44 32 36 20 8 0 0 0 12 32 48 64 68 68 68 68 76 76 76 92 92 92 92 92 92 92 92 92 92 92 92 92 92 92 92 92 92 88 80 88 88 80 56 64
80 80 88 92 88 88 88 88 88 88 88 88 92 92 92 92 92 92 92 92 88 80 64 32 76 80 64 36 32 20 8 0 0 0 8 20 56 80 80 68 68 68 68 64 80 92 92 88 92 92 92 92 92 92 92 92 92 92 92 92 92 92 92 92 88 88 80 76 64
88 88 88 88 88 88 88 88 88 88 88 88 92 92 88 88 92 92 92 92 92 80 68 56 80 68 48 48 76 56 24 0 0 0 0 0 24 56 80 68 68 64 56 48 64 76 80 48 76 88 92 92 92 92 92 92 92 92 92 92 92 92 92 92 92 88 80 92 80
92 88 88 88 88 88 88 88 88 88 88 88 92 92 88 88 88 88 92 92 92 80 76 76 88 76 64 80 56 36 24 0 0 0 0 0 0 24 48 64 56 56 48 44 44 56 64 48 44 68 92 92 92 92 92 92 92 92 92 92 92 92 92 92 92 92 92 92 80
88 88 88 88 88 88 88 88 88 88 88 88 92 92 88 80 80 88 92 92 92 92 88 80 80 68 64 64 36 36 32 12 0 0 0 0 0 8 24 44 44 44 36 32 32 36 48 56 44 64 88 92 92 92 92 92 92 92 92 92 92 92 92 92 92 92 92 92 80
80 88 88 88 88 88 88 88 88 88 88 88 88 88 88 76 80 80 80 92 92 92 92 92 68 56 48 48 32 32 36 32 8 0 0 0 0 0 0 12 36 44 32 20 20 24 32 44 44 44 64 92 92 92 92 92 92 92 92 92 92 92 92 92 92 92 92 92 92
80 88 88 88 88 88 88 88 88 88 88 88 88 88 92 92 92 80 80 92 92 92 92 92 76 76 68 32 36 36 44 36 12 0 0 0 0 0 0 0 8 36 56 20 12 12 20 24 32 36 44 68 88 92 92 92 92 92 92 92 92 92 92 92 92 92 92 92 92
80 88 88 88 88 88 88 88 92 92 92 88 88 88 88 92 92 88 80 92 92 92 88 80 88 92 80 44 44 48 48 36 20 8 0 0 0 0 0 0 0 24 56 56 32 20 12 20 24 32 32 36 64 76 88 92 92 92 92 92 92 92 92 92 92 92 92 92 92
80 88 88 88 88 88 88 88 88 88 88 88 88 88 88 80 88 88 80 76 88 88 88 80 80 80 80 76 64 68 64 48 12 0 0 0 0 0 0 0 0 8 32 56 56 36 24 12 20 24 32 24 36 56 80 80 92 92 92 92 92 92 92 92 92 92 92 92 92
80 88 88 88 88 88 88 88 88 88 88 88 88 80 80 80 88 88 88 76 64 68 88 92 80 80 88 92 88 80 76 56 32 8 0 0 0 0 0 0 0 0 0 12 36 48 44 24 12 20 24 24 12 36 68 88 88 88 92 92 92 92 92 92 92 92 92 92 92
88 88 88 80 80 88 88 88 88 88 88 88 88 88 88 80 88 88 88 68 68 76 80 88 88 88 92 92 92 80 76 76 76 36 0 0 0 0 0 0 0 0 0 0 8 20 32 32 24 20 20 24 20 24 44 92 76 76 80 92 92 92 92 92 92 92 92 92 92
88 88 88 80 80 88 88 88 88 88 88 88 88 88 92 88 88 80 76 80 80 76 68 76 80 88 88 92 76 76 80 88 92 80 56 20 0 0 0 0 0 0 0 0 0 0 8 20 12 12 20 20 20 20 24 44 64 68 68 80 88 88 92 92 92 92 92 92 92
88 88 88 88 88 80 80 88 88 88 88 88 88 88 92 92 88 88 80 88 80 76 76 80 76 80 88 88 64 64 80 92 68 56 44 32 8 0 0 0 0 0 0 0 0 0 0 0 0 0 0 0 0 8 12 24 32 44 56 68 68 80 92 92 92 92 92 92 92
88 80 80 80 80 80 80 88 80 80 88 88 88 88 88 88 76 76 76 80 80 88 88 88 88 80 80 88 80 80 88 92 80 56 32 24 20 8 0 0 0 0 0 0 0 0 0 0 0 0 0 0 0 0 0 12 12 24 44 80 56 64 76 92 92 92 92 92 92
80 68 68 80 68 68 68 76 80 80 80 80 88 88 88 88 80 76 76 80 68 76 80 80 76 76 76 92 92 92 92 92 88 88 68 44 20 20 20 0 0 0 0 0 0 0 0 0 0 0 0 0 0 0 0 8 8 12 32 56 48 64 80 92 92 92 92 92 92
80 68 64 56 56 56 56 56 76 80 80 80 88 88 88 80 76 76 76 68 56 64 76 80 76 76 88 88 88 92 92 92 88 88 88 88 64 68 76 36 8 0 0 0 0 0 0 0 0 0 0 0 0 0 0 0 8 12 32 64 80 68 64 80 92 92 92 92 92
68 76 64 48 56 56 56 48 56 64 76 80 80 68 64 80 80 88 88 88 88 88 88 92 88 80 80 92 92 92 88 92 92 92 92 92 88 88 88 76 68 36 8 0 0 0 0 0 0 0 0 0 12 24 36 32 44 36 36 76 88 76 64 76 88 92 92 92 92
76 80 80 76 64 64 64 64 64 76 80 80 80 80 76 64 76 88 92 92 92 92 92 92 92 92 92 92 92 92 92 92 92 92 92 92 88 76 68 80 88 80 48 0 0 0 0 0 0 0 0 0 8 48 88 76 88 76 68 80 88 88 80 68 88 92 92 92 92
88 80 80 80 88 80 76 64 80 80 88 88 88 88 92 88 88 88 92 92 92 92 92 92 88 92 92 88 92 92 92 92 92 92 92 92 92 92 88 68 48 44 32 0 0 0 0 0 20 20 12 0 44 80 92 92 76 80 92 92 92 80 76 92 92 92 92 92 92
92 88 80 80 80 80 80 80 80 88 88 88 88 92 88 88 80 80 80 68 80 88 80 76 88 88 88 88 88 92 92 92 92 92 92 92 92 92 92 88 76 68 56 12 0 0 8 0 0 12 24 8 68 92 92 92 92 92 92 92 92 76 68 92 88 80 80 80 92
92 92 88 88 80 80 80 80 80 80 88 88 88 88 80 80 80 88 80 76 68 68 76 88 88 88 92 92 92 92 92 92 92 88 80 92 92 92 92 92 92 68 36 20 32 36 32 20 8 12 32 44 80 92 92 92 92 92 92 92 80 64 48 56 80 88 76 76 88
92 92 92 88 88 88 80 68 76 80 80 80 80 80 80 68 88 92 92 92 80 80 88 92 88 80 80 88 88 92 92 92 92 76 64 76 88 68 56 88 88 64 36 48 36 32 32 12 8 8 20 48 80 88 80 88 68 76 92 92 56 44 56 88 88 88 88 80 80
92 92 92 92 92 92 88 88 76 68 76 76 80 88 88 88 88 88 92 92 92 92 92 92 92 92 92 88 76 80 92 92 92 92 92 88 88 76 68 88 88 64 32 32 12 12 12 20 8 8 12 44 64 80 88 68 64 80 92 92 92 64 32 36 44 44 56 76 80
92 92 92 92 92 92 88 80 88 88 80 88 92 92 92 92 88 88 92 92 92 92 92 92 92 88 80 76 80 88 88 88 92 92 92 92 92 92 92 92 68 44 20 20 12 8 8 8 0 0 8 20 44 68 80 68 68 76 88 92 92 80 56 24 32 32 36 56 76
80 88 92 92 92 92 92 92 88 80 80 80 80 80 88 92 92 92 92 92 92 92 92 92 88 80 80 88 88 88 88 88 92 92 92 92 92 92 92 92 48 24 12 20 12 8 8 8 8 8 8 0 32 44 48 64 56 44 44 92 92 92 80 44 24 20 32 44 64
88 88 88 88 88 88 92 88 88 88 80 80 80 80 80 80 92 92 92 92 92 92 92 92 88 88 88 88 88 88 92 88 92 92 92 92 92 88 80 76 44 24 20 24 24 12 0 12 8 8 8 8 12 20 20 24 8 8 36 92 92 92 88 76 36 20 24 24 48
88 88 88 88 88 88 88 88 88 88 88 80 80 88 88 88 92 92 92 92 92 88 80 88 88 88 88 88 88 92 92 88 88 92 92 92 92 88 68 36 24 24 24 24 32 24 12 20 12 8 12 36 24 20 20 32 20 36 64 92 92 88 80 92 56 36 36 48 56
88 88 88 88 88 88 88 88 88 88 88 88 88 92 92 92 92 92 92 92 92 88 80 88 88 88 92 88 88 88 88 88 92 92 92 92 92 92 80 56 24 12 8 20 36 44 44 32 32 36 56 80 68 56 48 92 80 76 80 92 92 80 76 92 80 68 68 92 80
88 88 88 88 88 88 88 88 92 92 92 92 92 92 92 92 92 92 92 92 92 92 92 88 88 88 88 80 88 80 80 92 92 92 92 92 92 92 92 92 36 8 0 8 20 44 56 48 56 68 88 88 92 92 92 92 92 92 88 92 92 80 80 92 88 88 88 92 80
88 88 88 88 88 88 88 88 88 92 92 92 92 92 92 92 92 92 92 92 92 92 88 88 80 80 80 76 80 88 88 92 92 92 92 92 92 92 92 92 68 32 0 8 8 12 24 32 56 76 88 92 92 92 92 92 92 92 92 92 92 92 92 92 92 92 92 92 92
88 88 88 88 88 88 88 88 88 88 92 92 92 92 88 88 88 88 88 88 88 88 88 80 76 76 76 88 88 88 88 88 88 88 92 92 92 92 92 92 92 76 36 8 8 8 8 12 32 48 68 92 92 92 92 92 92 92 88 80 88 88 92 92 92 92 92 92 92